"TOA5","AWS1","CR1000","7964","CR1000.Std.14","CPU:AWS1_114.CR1","64363","TBL110"
"TIMESTAMP","RECORD","Wind_spd_WVc(1)","Wind_spd_WVc(2)","Air_Temp_Avg","Humidity_Avg","SW_upper_Wm2_Avg","Rain_Tot","Press_Avg","Issui_Tot","Depth_cm","SR50A_Raw","Quality","Ground_Temp_Avg(1)","Ground_Temp_Avg(2)","SW_lower_Wm2_Avg","Albedo_Avg","SWC_per(1)","SWC_per(2)","Period(1)","Period(2)"
"TS","RN","","","","","","","","","","","","","","","","","","",""
"","","WVc","WVc","Avg","Avg","Avg","Tot","Avg","Tot","Smp","Smp","Smp","Avg","Avg","Avg","Avg","Smp","Smp","Smp","Smp"
"2017-02-09 00:00:00",274381,0.109,307.6,-6.719,86.9,0,0,857.0172,0,87.1,2.336,184,1.231,1.922,0.3831688,0,52.6,60.68,33.94,35.83
"2017-02-09 00:10:00",274382,0.061,222,-6.693,85.1,0,0,856.8173,0,87.3,2.337,179,1.238,1.921,0.2617709,0,52.66,60.68,33.95,35.83
"2017-02-09 00:20:00",274383,0,0,-6.752,86.7,0,0,856.7498,0,87.1,2.338,189,1.241,1.924,0.2238346,0,52.66,60.68,33.95,35.83
"2017-02-09 00:30:00",274384,0.005,346.4,-6.771,87.4,0,0,856.5763,0,87,2.339,188,1.233,1.916,0.2276241,0,52.6,60.68,33.94,35.83
"2017-02-09 00:40:00",274385,0.46,190.9,-7.008,90,0,0,856.5501,0,87.1,2.339,193,1.233,1.922,0.1214,0,52.6,60.68,33.94,35.83
"2017-02-09 00:50:00",274386,0.051,204.8,-6.84,88.6,0,0,856.5482,0.5,87,2.339,187,1.226,1.919,0.2276195,0,52.6,60.68,33.94,35.83
"2017-02-09 01:00:00",274387,0.025,196.8,-6.78,87.5,0,0,856.3577,0,87.1,2.339,188,1.23,1.912,0.2276185,0,52.66,60.68,33.95,35.83
"2017-02-09 01:10:00",274388,0.226,195.6,-6.839,87.9,0,0,856.2709,0,87.1,2.339,188,1.219,1.921,0.2276206,0,52.66,60.68,33.95,35.83
"2017-02-09 01:20:00",274389,0.045,195,-6.873,87.1,0,0,856.0726,0,86.9,2.341,192,1.23,1.93,0.0948441,0,52.66,60.68,33.95,35.83
"2017-02-09 01:30:00",274390,0.003,195.2,-6.602,80.2,0,0,855.9531,0,86.7,2.341,192,1.242,1.928,0.4742415,0,52.6,60.68,33.94,35.83
"2017-02-09 01:40:00",274391,0.134,202.6,-6.705,84.4,0,0,855.8211,0,86.9,2.34,188,1.251,1.932,0.2010802,0,52.6,60.68,33.94,35.83
"2017-02-09 01:50:00",274392,0.001,326.9,-6.836,85.6,0,0,855.8035,0,86.8,2.342,192,1.234,1.922,0.0531136,0,52.6,60.68,33.94,35.83
"2017-02-09 02:00:00",274393,0,0,-6.924,86.1,0,0,855.6302,0,86.7,2.343,193,1.233,1.921,0,0,52.6,60.68,33.94,35.83
"2017-02-09 02:10:00",274394,0.003,326.9,-6.981,87.8,0,0,855.5623,0,86.8,2.342,194,1.242,1.927,0.102437,0,52.66,60.68,33.95,35.83
"2017-02-09 02:20:00",274395,0,0,-6.954,87.4,0,0,855.5511,0,86.8,2.342,187,1.263,1.941,0.2048841,0,52.6,60.68,33.94,35.83
"2017-02-09 02:30:00",274396,0.098,195.7,-7.006,87.7,0,0,855.3088,0,86.8,2.343,192,1.266,1.953,0.110035,0,52.6,60.68,33.94,35.83
"2017-02-09 02:40:00",274397,0.123,170.4,-7.188,89.3,0,0,855.0219,0,86.7,2.344,193,1.266,1.954,0.1024473,0,52.6,60.68,33.94,35.83
"2017-02-09 02:50:00",274398,0.119,144.6,-7.151,89.3,0,0,854.7363,0,86.8,2.343,193,1.264,1.954,0.1290072,0,52.6,60.68,33.94,35.83
"2017-02-09 03:00:00",274399,0.317,200.4,-7.054,87,0,0,854.5803,0,86.8,2.342,194,1.263,1.954,0.2238653,0,52.6,60.68,33.94,35.83
"2017-02-09 03:10:00",274400,0.058,7.793,-6.921,85.9,0,0,854.5814,0,86.7,2.344,194,1.268,1.966,0.17075,0,52.6,60.68,33.94,35.83
"2017-02-09 03:20:00",274401,0.151,351.9,-6.967,85.5,0,0,854.4743,0,86.6,2.344,192,1.271,1.972,0.1783456,0,52.6,60.68,33.94,35.83
"2017-02-09 03:30:00",274402,0.134,340.2,-6.87,83.1,0,0,854.2207,0,86.7,2.343,192,1.281,1.974,0.2276755,0,52.6,60.68,33.94,35.83
"2017-02-09 03:40:00",274403,0.028,316.9,-6.77,80.8,0,0,854.097,0,86.6,2.344,193,1.267,1.972,0.227677,0,52.6,60.68,33.94,35.83
"2017-02-09 03:50:00",274404,0.022,316.8,-6.927,84.2,0,0,854.094,0,86.4,2.346,174,1.261,1.972,0.2276755,0,52.6,60.68,33.94,35.83
"2017-02-09 04:00:00",274405,0.059,356.9,-7,88.6,0,0,854.0784,0,86.4,2.347,177,1.274,1.977,0.02276766,0,52.6,60.68,33.94,35.83
"2017-02-09 04:10:00",274406,0.072,357,-7.121,89.3,0,0,853.9919,0,86.4,2.347,172,1.279,1.979,0.09486704,0,52.66,60.62,33.95,35.82
"2017-02-09 04:20:00",274407,0.012,358.8,-7.163,91.2,0,0,853.9231,0,86.3,2.348,200,1.276,1.975,0.02276831,0,52.6,60.68,33.94,35.83
"2017-02-09 04:30:00",274408,0.007,0.146,-7.086,91.4,0,0,853.9202,0,86.7,2.343,188,1.273,1.973,0.1100466,0,52.6,60.68,33.94,35.83
"2017-02-09 04:40:00",274409,0.018,6.36,-7.134,91.4,0,0,853.7493,0,86.9,2.342,175,1.257,1.97,0.05312551,0,52.6,60.68,33.94,35.83
"2017-02-09 04:50:00",274410,0,0,-7.19,91.9,0,0,853.5826,0,87.1,2.34,192,1.248,1.961,0.06830382,0,52.6,60.68,33.94,35.83
"2017-02-09 05:00:00",274411,0.015,28.15,-7.154,91.7,0,0,853.5021,0,87.9,2.332,272,1.257,1.96,0.2238824,0,52.66,60.68,33.95,35.83
"2017-02-09 05:10:00",274412,0,0,-7.073,92,0,0,853.3498,0,87.3,2.337,188,1.268,1.973,0.2276773,0,52.6,60.68,33.94,35.83
"2017-02-09 05:20:00",274413,0,0,-7.072,92.5,0,0,853.3361,0,87.2,2.338,184,1.269,1.973,0.2276804,0,52.6,60.68,33.94,35.83
"2017-02-09 05:30:00",274414,0,0,-7.049,92.6,0,0,853.358,0,87.2,2.338,189,1.27,1.98,0.2276824,0,52.6,60.68,33.94,35.83
"2017-02-09 05:40:00",274415,0.029,86.4,-7.081,93.4,0,0,853.3351,0,86.6,2.344,190,1.274,1.979,0.2238884,0,52.6,60.68,33.94,35.83
"2017-02-09 05:50:00",274416,0.006,86.4,-7.099,94.1,0,0,853.2383,0,87,2.341,192,1.267,1.976,0.1707625,0,52.6,60.68,33.94,35.83
"2017-02-09 06:00:00",274417,0.1,139.2,-7.209,97.3,0,0,853.0773,0,87.6,2.335,192,1.281,1.981,0.13661,0,52.6,60.68,33.94,35.83
"2017-02-09 06:10:00",274418,0.272,112.1,-6.877,98.8,0,0,853.0822,0,88.1,2.327,222,1.274,1.98,0.4629562,0,52.6,60.68,33.94,35.83
"2017-02-09 06:20:00",274419,0.266,91.1,-6.316,97.2,0,0,853.0856,0,88.2,2.324,192,1.265,1.969,0.6830435,0,52.6,60.68,33.94,35.83
"2017-02-09 06:30:00",274420,0.218,80,-6.058,95.9,0,0,853.0876,0,87.7,2.329,195,1.293,1.981,0.6830432,0,52.6,60.68,33.94,35.83
"2017-02-09 06:40:00",274421,0.308,54.61,-6.058,96,0,0,852.9834,0,88.5,2.321,201,1.288,1.984,0.7361687,0,52.6,60.68,33.94,35.83
"2017-02-09 06:50:00",274422,0.123,27.56,-5.946,95.6,0.06296899,0,852.7668,0,88.7,2.318,198,1.291,1.978,1.498876,2.314,52.6,60.68,33.94,35.83
"2017-02-09 07:00:00",274423,0.19,65.3,-5.863,94.4,0.326655,0,852.5764,0,89,2.315,200,1.294,1.981,3.582165,12.64,52.6,60.68,33.94,35.83
"2017-02-09 07:10:00",274424,0.077,99.8,-5.805,93.6,1.487671,0,852.4425,0,88.9,2.315,192,1.292,1.985,7.589407,5.589,52.6,60.68,33.94,35.83
"2017-02-09 07:20:00",274425,0.279,298.7,-5.747,92.9,2.947795,0,852.4086,0,88.9,2.316,193,1.285,1.98,13.58884,4.631,52.6,60.68,33.94,35.83
"2017-02-09 07:30:00",274426,0.024,13.68,-5.805,95.6,2.711622,0,852.3306,0,88.9,2.316,192,1.284,1.977,11.54714,4.289,52.6,60.68,33.94,35.83
"2017-02-09 07:40:00",274427,0,0,-5.916,96.7,3.140424,0,852.2902,0,88.9,2.316,192,1.27,1.963,12.36609,3.919,52.6,60.68,33.94,35.83
"2017-02-09 07:50:00",274428,0.111,182,-5.626,96.8,6.780186,0,852.2198,0,89.1,2.311,182,1.252,1.944,29.85646,4.405,52.6,60.68,33.94,35.83
"2017-02-09 08:00:00",274429,0.293,149.5,-4.878,94.6,7.688908,0,852.0765,0,89.1,2.307,190,1.242,1.935,37.35239,4.872,52.6,60.62,33.94,35.82
"2017-02-09 08:10:00",274430,0.427,141.3,-3.943,91.5,8.003335,0,852.0032,0,88.8,2.307,191,1.221,1.938,42.351,5.295,52.6,60.68,33.94,35.83
"2017-02-09 08:20:00",274431,0.418,139.5,-3.402,89.8,8.872529,0,851.7868,0,88.9,2.305,189,1.181,1.949,45.01231,5.104,52.6,60.62,33.94,35.82
"2017-02-09 08:30:00",274432,0.431,162.4,-2.945,87.9,12.9482,0,851.7475,0,88.8,2.304,189,1.165,1.925,59.75578,4.627,52.6,60.62,33.94,35.82
"2017-02-09 08:40:00",274433,0.179,159.9,-2.829,88.2,16.48887,0,851.5658,0,88.7,2.304,189,1.161,1.937,71.62441,4.356,52.66,60.62,33.95,35.82
"2017-02-09 08:50:00",274434,0.383,163.8,-2.613,86.9,15.45404,0,851.5911,0,88.7,2.303,181,1.185,1.928,65.79342,4.264,52.6,60.62,33.94,35.82
"2017-02-09 09:00:00",274435,0.197,130.9,-2.405,86,15.07631,0,851.5742,0,88.8,2.303,176,1.202,1.894,63.28961,4.202,52.6,60.62,33.94,35.82
"2017-02-09 09:10:00",274436,0.797,129.1,-2.758,89.4,20.09649,0,851.4941,0,89,2.302,192,1.2,1.892,78.26224,3.901,52.6,60.68,33.94,35.83
"2017-02-09 09:20:00",274437,0.615,125.4,-2.837,93.1,23.97179,0,851.5004,0.5,89,2.302,192,1.199,1.893,93.78495,3.909,52.6,60.68,33.94,35.83
"2017-02-09 09:30:00",274438,0.771,133.2,-2.829,95.2,28.96444,0,851.4899,0,89.1,2.301,191,1.217,1.91,113.7498,3.927,52.66,60.62,33.95,35.82
"2017-02-09 09:40:00",274439,0.857,133.7,-2.584,93.6,29.78243,0,851.4534,0,88.8,2.302,176,1.235,1.925,118.8543,3.99,52.6,60.62,33.94,35.82
"2017-02-09 09:50:00",274440,0.798,134.7,-2.278,90.8,35.07246,0,851.2416,0,88.6,2.303,194,1.229,1.921,140.497,4.006,52.6,60.68,33.94,35.83
"2017-02-09 10:00:00",274441,0.648,139.4,-2.095,89.1,40.6795,0,851.0275,0,88.7,2.301,192,1.199,1.897,161.234,3.964,52.6,60.62,33.94,35.82
"2017-02-09 10:10:00",274442,0.722,155.4,-1.794,86.5,42.32362,0,850.7814,0,88.7,2.3,189,1.146,1.844,168.4583,3.98,52.66,60.62,33.95,35.82
"2017-02-09 10:20:00",274443,0.884,137.8,-1.564,83.5,39.47306,0,850.5761,0,88.6,2.3,190,1.124,1.833,155.6664,3.943,52.6,60.62,33.94,35.82
"2017-02-09 10:30:00",274444,0.579,119.3,-1.375,82.8,37.50143,0,850.4446,0,88.6,2.299,191,1.17,1.886,149.253,3.98,52.66,60.62,33.95,35.82
"2017-02-09 10:40:00",274445,0.575,135.5,-1.321,82.4,38.12246,0,850.1853,0,88.6,2.3,190,1.198,1.891,150.8479,3.956,52.6,60.62,33.94,35.82
"2017-02-09 10:50:00",274446,0.61,124.1,-1.381,84,36.22271,0,850.0841,0,88.6,2.3,185,1.198,1.889,142.6071,3.937,52.6,60.62,33.94,35.82
"2017-02-09 11:00:00",274447,0.449,120.9,-1.263,86.1,31.98687,0,849.8122,0,88.4,2.301,171,1.18,1.881,126.2894,3.949,52.6,60.62,33.94,35.82
"2017-02-09 11:10:00",274448,0.415,122.7,-1.379,87.5,30.08724,0,849.6288,0,88.6,2.3,174,1.146,1.852,116.2706,3.863,52.6,60.62,33.94,35.82
"2017-02-09 11:20:00",274449,0.374,124.4,-1.463,89.1,21.26951,0,849.5573,0,88.6,2.3,179,1.128,1.838,79.67653,3.746,52.6,60.62,33.94,35.82
"2017-02-09 11:30:00",274450,0.53,125,-1.557,90.9,25.14717,0,849.367,0,88.8,2.299,191,1.129,1.839,95.24227,3.789,52.6,60.62,33.94,35.82
"2017-02-09 11:40:00",274451,0.287,117.2,-1.639,92.4,23.02664,0,849.3219,0,88.6,2.3,176,1.122,1.824,88.72861,3.855,52.6,60.62,33.94,35.82
"2017-02-09 11:50:00",274452,0.217,40.89,-1.489,93.1,20.55988,0,849.1959,0,88.7,2.3,171,1.11,1.809,82.20666,3.999,52.6,60.62,33.94,35.82
"2017-02-09 12:00:00",274453,0.483,115.4,-1.708,95.9,22.39901,0,849.005,0.5,88.8,2.3,175,1.094,1.797,85.14777,3.803,52.6,60.62,33.94,35.82
"2017-02-09 12:10:00",274454,0.655,139,-2.098,99.6,26.13307,0,848.7933,0,88.8,2.301,189,1.084,1.787,95.78821,3.665,52.6,60.62,33.94,35.82
"2017-02-09 12:20:00",274455,0.715,139.8,-2.261,100,24.53125,0,848.4684,0,89,2.299,175,1.076,1.794,91.77919,3.742,52.6,60.62,33.94,35.82
"2017-02-09 12:30:00",274456,0.121,79.07,-1.994,100,22.42317,0,848.294,0,89.1,2.297,176,1.069,1.784,91.01488,4.063,52.66,60.62,33.95,35.82
"2017-02-09 12:40:00",274457,0.298,33.1,-1.753,100,17.62641,0,848.2836,0.5,89.2,2.296,174,1.059,1.763,73.59917,4.174,52.6,60.62,33.94,35.82
"2017-02-09 12:50:00",274458,0.384,108.4,-1.703,100,23.92481,0,848.182,0,89.3,2.295,176,1.05,1.745,96.18077,4.02,52.6,60.62,33.94,35.82
"2017-02-09 13:00:00",274459,0.494,129.3,-1.745,98.7,27.00283,0,848.0344,0,89.4,2.294,181,1.041,1.747,106.672,3.951,52.6,60.62,33.94,35.82
"2017-02-09 13:10:00",274460,0.624,119,-1.819,96.2,27.57266,0,847.8762,0,89.4,2.294,174,1.044,1.749,109.5179,3.971,52.6,60.62,33.94,35.82
"2017-02-09 13:20:00",274461,0.648,129.6,-1.902,96.7,23.92007,0,847.7779,0,89.5,2.293,191,1.04,1.749,93.10693,3.891,52.6,60.62,33.94,35.82
"2017-02-09 13:30:00",274462,0.739,129.6,-2.028,99.4,26.83338,0,847.6658,0,89.5,2.294,179,1.058,1.755,105.4763,3.928,52.6,60.62,33.94,35.82
"2017-02-09 13:40:00",274463,0.763,123.4,-2.076,100,30.65098,0,847.5119,0.5,89.3,2.295,180,1.058,1.758,123.1606,4.019,52.6,60.62,33.94,35.82
"2017-02-09 13:50:00",274464,0.593,118.3,-1.869,97.8,29.82927,0,847.3686,0,89.3,2.295,189,1.08,1.765,122.9976,4.122,52.6,60.62,33.94,35.82
"2017-02-09 14:00:00",274465,0.591,124.3,-1.913,95.9,27.03388,0,847.2654,0,89.3,2.295,189,1.09,1.785,108.6758,4.02,52.6,60.62,33.94,35.82
"2017-02-09 14:10:00",274466,0.752,130,-2.012,94.4,24.49405,0,847.0821,0,89.4,2.295,176,1.082,1.761,96.36312,3.925,52.6,60.62,33.94,35.82
"2017-02-09 14:20:00",274467,0.915,129.2,-2.064,93.9,26.56995,0,846.9747,0,89.4,2.295,174,1.066,1.762,104.5513,3.934,52.6,60.62,33.94,35.82
"2017-02-09 14:30:00",274468,0.958,134.2,-2.228,93.6,22.80345,0,846.804,0,89.4,2.296,175,1.067,1.769,89.19843,3.911,52.55,60.62,33.92,35.82
"2017-02-09 14:40:00",274469,0.496,113.8,-2.207,94.4,19.71712,0,846.726,0,88.9,2.3,240,1.063,1.783,79.40291,4.03,52.6,60.62,33.94,35.82
"2017-02-09 14:50:00",274470,0.641,125.3,-2.24,94.6,18.82857,0,846.6502,0,89.4,2.296,190,1.061,1.782,76.01768,4.04,52.6,60.62,33.94,35.82
"2017-02-09 15:00:00",274471,0.684,128.4,-2.431,93.7,20.72755,0,846.5132,0,89.3,2.297,201,1.079,1.789,82.90943,4,52.6,60.62,33.94,35.82
"2017-02-09 15:10:00",274472,0.48,112.5,-2.358,94.9,19.43404,0,846.488,0.5,89.7,2.293,206,1.089,1.796,79.78199,4.105,52.6,60.62,33.94,35.82
"2017-02-09 15:20:00",274473,0.236,108.2,-2.204,95.3,14.73968,0,846.5132,0,89.1,2.298,203,1.09,1.794,61.70727,4.19,52.55,60.62,33.92,35.82
"2017-02-09 15:30:00",274474,0.307,88.5,-2.246,96.3,12.91933,0,846.5301,0,88.5,2.304,209,1.09,1.794,53.29919,4.126,52.6,60.62,33.94,35.82
"2017-02-09 15:40:00",274475,0.515,119.8,-2.364,97.8,14.18532,0,846.5132,0,85.4,2.337,205,1.097,1.797,57.5146,4.043,52.6,60.62,33.94,35.82
"2017-02-09 15:50:00",274476,0.2,102.1,-2.387,98.6,11.44104,0,846.5132,0,86.8,2.322,220,1.109,1.799,46.59699,4.07,52.6,60.62,33.94,35.82
"2017-02-09 16:00:00",274477,0.319,121.7,-2.433,98.6,7.705994,0,846.5069,0,88.9,2.301,200,1.109,1.801,31.39194,4.075,52.6,60.62,33.94,35.82
"2017-02-09 16:10:00",274478,0.133,95,-2.362,99.9,7.277446,0,846.4542,0,89.3,2.297,217,1.109,1.801,30.23952,4.15,52.55,60.62,33.92,35.82
"2017-02-09 16:20:00",274479,0.012,349.9,-2.322,100,6.695628,0,846.3636,0,89.3,2.297,299,1.111,1.803,29.49301,4.416,52.6,60.62,33.94,35.82
"2017-02-09 16:30:00",274480,0.163,69.03,-2.362,100,5.052258,0,846.2731,0,90.6,2.284,229,1.115,1.807,21.24813,4.179,52.6,60.62,33.94,35.82
"2017-02-09 16:40:00",274481,0.213,109.3,-2.561,100,4.297423,0,846.2653,0.5,90,2.29,187,1.119,1.81,15.39894,3.582,52.6,60.62,33.94,35.82
"2017-02-09 16:50:00",274482,0.05,91.2,-2.604,100,2.795606,0,846.2723,0,90.6,2.285,191,1.13,1.821,8.871252,3.167,52.6,60.62,33.94,35.82
"2017-02-09 17:00:00",274483,0.121,67.69,-2.647,100,1.722203,0,846.2794,0,91.3,2.278,176,1.133,1.824,5.061201,2.898,52.6,60.62,33.94,35.82
"2017-02-09 17:10:00",274484,0.356,51.51,-2.741,100,1.179661,0,846.2924,0,90.9,2.282,187,1.147,1.839,2.729801,2.325,52.6,60.62,33.94,35.82
"2017-02-09 17:20:00",274485,0.052,35.51,-2.743,100,0.7471521,0,846.3089,0.5,91.2,2.279,182,1.16,1.852,1.277752,1.627,52.6,60.62,33.94,35.82
"2017-02-09 17:30:00",274486,0.135,109.6,-2.789,100,0.4640517,0,846.3158,0,91.8,2.274,213,1.176,1.868,0.1099609,0.241,52.6,60.62,33.94,35.82
"2017-02-09 17:40:00",274487,0.081,105,-3.03,100,0.4719346,0,846.3273,0.5,92.2,2.271,192,1.186,1.878,0,0,52.6,60.62,33.94,35.82
"2017-02-09 17:50:00",274488,0.215,108.6,-3.068,100,0.4011552,0,846.3378,0,92.4,2.269,191,1.176,1.883,0,0,52.6,60.62,33.94,35.82
"2017-02-09 18:00:00",274489,0.35,121.4,-3.213,100,0.3107025,0,846.3027,0.5,92.5,2.268,178,1.137,1.869,0,0,52.6,60.62,33.94,35.82
"2017-02-09 18:10:00",274490,0.481,133.1,-3.285,100,0.2949722,0,846.0916,0,92.6,2.268,182,1.142,1.864,0,0,52.6,60.62,33.94,35.82
"2017-02-09 18:20:00",274491,0.266,90,-3.369,100,0.4640902,0,846.2305,0,92.5,2.269,178,1.148,1.849,0,0,52.6,60.62,33.94,35.82
"2017-02-09 18:30:00",274492,0.18,115.6,-3.414,100,0.2359781,0,846.25,0,92.4,2.27,179,1.155,1.847,0,0,52.6,60.62,33.94,35.82
"2017-02-09 18:40:00",274493,0.368,96,-3.454,100,0.1887825,0,846.2311,0,92.4,2.271,193,1.155,1.846,0,0,52.6,60.62,33.94,35.82
"2017-02-09 18:50:00",274494,0.349,126.7,-3.59,100,0,0,846.0878,0,92.1,2.274,203,1.155,1.847,0,0,52.6,60.62,33.94,35.82
"2017-02-09 19:00:00",274495,0.39,122.7,-3.493,100,0,0,846.092,0,91.9,2.276,200,1.163,1.858,0,0,52.6,60.62,33.94,35.82
"2017-02-09 19:10:00",274496,0.517,110.4,-3.543,100,0.01179891,0,846.0751,0,91.8,2.277,193,1.177,1.868,0,0,52.55,60.62,33.92,35.82
"2017-02-09 19:20:00",274497,0.413,99.1,-3.582,100,0.003932969,0,845.9971,0,91.8,2.277,198,1.183,1.88,0,0,52.55,60.62,33.92,35.82
"2017-02-09 19:30:00",274498,0.478,117.3,-3.644,100,0,0,845.877,0,92,2.276,189,1.182,1.877,0,0,52.55,60.62,33.92,35.82
"2017-02-09 19:40:00",274499,0.591,116.1,-3.724,100,0,0,845.8412,0,92,2.276,197,1.189,1.884,0,0,52.6,60.62,33.94,35.82
"2017-02-09 19:50:00",274500,0.482,130.6,-3.702,100,0,0,845.8391,0,91.8,2.277,202,1.184,1.886,0,0,52.6,60.62,33.94,35.82
"2017-02-09 20:00:00",274501,0.522,123.2,-3.635,100,0,0,845.8391,0,91.6,2.279,202,1.194,1.879,0,0,52.55,60.62,33.92,35.82
"2017-02-09 20:10:00",274502,0.715,125.2,-3.614,100,0,0,845.8264,0,91.5,2.28,217,1.193,1.887,0,0,52.55,60.62,33.92,35.82
"2017-02-09 20:20:00",274503,0.554,114.1,-3.613,100,0,0,845.8391,0,91.4,2.281,211,1.189,1.877,0,0,52.6,60.62,33.94,35.82
"2017-02-09 20:30:00",274504,0.682,98.2,-3.594,100,0,0,845.8391,0,91.8,2.277,289,1.193,1.883,0.1099718,0,52.55,60.62,33.92,35.82
"2017-02-09 20:40:00",274505,0.352,70.08,-3.556,99.3,0,0,845.778,0,92,2.275,302,1.19,1.877,0.07205047,0,52.6,60.62,33.94,35.82
"2017-02-09 20:50:00",274506,0.438,67.65,-3.572,97.3,0.1022572,0,845.6578,0,91.3,2.282,262,1.19,1.88,0,0,52.6,60.62,33.94,35.82
"2017-02-09 21:00:00",274507,0.416,117.6,-3.724,96.4,0.2359781,0,845.5482,0,90.8,2.288,253,1.171,1.86,0,0,52.6,60.62,33.94,35.82
"2017-02-09 21:10:00",274508,0.448,146.2,-3.863,99.9,0.2359781,0,845.3353,0,90.6,2.29,266,1.177,1.866,0,0,52.55,60.62,33.92,35.82
"2017-02-09 21:20:00",274509,0.603,143.6,-3.923,100,0.03539672,0,845.3332,0,91.2,2.284,275,1.163,1.849,0,0,52.55,60.56,33.92,35.81
"2017-02-09 21:30:00",274510,0.481,96.4,-3.908,99.2,0.03539672,0,845.3332,0,91.4,2.283,267,1.146,1.83,0,0,52.55,60.62,33.92,35.82
"2017-02-09 21:40:00",274511,0.707,115.8,-3.909,95.8,0.04326266,0,845.2911,0,90.8,2.288,253,1.127,1.815,0.04171343,0,52.6,60.62,33.94,35.82
"2017-02-09 21:50:00",274512,0.699,99.6,-3.77,91.4,0,0,845.1182,0,90.9,2.287,253,1.12,1.807,0.1668537,0,52.6,60.62,33.94,35.82
"2017-02-09 22:00:00",274513,1.058,120.1,-3.721,89.8,0,0,845.0719,0,91.5,2.28,199,1.136,1.813,0.1441009,0,52.55,60.62,33.92,35.82
"2017-02-09 22:10:00",274514,0.819,130.6,-3.684,88.6,0,0,845.0803,0,91.4,2.281,198,1.136,1.819,0.1251403,0,52.55,60.56,33.92,35.81
"2017-02-09 22:20:00",274515,0.404,109.5,-3.716,89.7,0,0,845.0761,0,91.4,2.282,188,1.133,1.812,0.01137639,0,52.55,60.56,33.92,35.81
"2017-02-09 22:30:00",274516,0.424,108.4,-3.905,92.5,0,0,845.0402,0,91.1,2.286,194,1.12,1.809,0,0,52.55,60.56,33.92,35.81
"2017-02-09 22:40:00",274517,0.509,103.7,-3.993,94.8,0,0,845.0087,0,91.1,2.286,192,1.113,1.81,0,0,52.55,60.62,33.92,35.82
"2017-02-09 22:50:00",274518,0.633,121.2,-4.041,95,0.01573188,0,844.8821,0,90.7,2.29,196,1.119,1.812,0,0,52.55,60.56,33.92,35.81
"2017-02-09 23:00:00",274519,0.678,121.3,-4.144,96.4,0.02753078,0,844.8253,0,90.9,2.288,220,1.114,1.808,0,0,52.55,60.56,33.92,35.81
"2017-02-09 23:10:00",274520,0.605,124.6,-4.134,95.8,0,0,844.7641,0,91.9,2.279,218,1.113,1.812,0,0,52.55,60.56,33.92,35.81
"2017-02-09 23:20:00",274521,0.628,126.3,-4.216,97.7,0.01573188,0,844.5618,0.5,91.8,2.28,218,1.114,1.808,0,0,52.55,60.56,33.92,35.81
"2017-02-09 23:30:00",274522,0.663,119.1,-4.271,99.4,0.1179891,0,844.4016,0,91.8,2.28,216,1.112,1.814,0,0,52.55,60.56,33.92,35.81
"2017-02-09 23:40:00",274523,0.842,128.5,-4.363,99.9,0.1927155,0,844.3406,0,91.7,2.282,200,1.115,1.826,0,0,52.55,60.56,33.92,35.81
"2017-02-09 23:50:00",274524,0.525,103.5,-4.451,100,0.2359781,0,844.3215,0,91.8,2.28,192,1.114,1.824,0,0,52.55,60.62,33.92,35.82
